Year,Month,Day,Hour,Minute,Value (Times are PST for windgust in km/hr)
2021,02,05,00,42,6.40
2021,02,05,00,43,4.80
2021,02,05,00,44,3.20
2021,02,05,00,45,1.60
2021,02,05,00,48,3.20
2021,02,05,00,49,3.20
2021,02,05,00,50,3.20
2021,02,05,00,51,3.20
2021,02,05,00,52,6.40
2021,02,05,01,00,6.40
2021,02,05,01,01,4.80
2021,02,05,01,02,6.40
2021,02,05,01,03,8.10
2021,02,05,01,04,6.40
2021,02,05,01,05,4.80
2021,02,05,01,06,3.20
2021,02,05,01,07,4.80
2021,02,05,01,08,3.20
2021,02,05,01,09,3.20
2021,02,05,01,10,4.80
2021,02,05,01,11,3.20
2021,02,05,01,12,4.80
2021,02,05,01,13,4.80
2021,02,05,01,14,4.80
2021,02,05,01,15,6.40
2021,02,05,01,16,4.80
2021,02,05,01,17,6.40
2021,02,05,01,18,6.40
2021,02,05,01,19,6.40
2021,02,05,01,20,6.40
2021,02,05,01,21,6.40
2021,02,05,01,22,6.40
2021,02,05,01,23,6.40
2021,02,05,01,24,4.80
2021,02,05,01,25,8.10
2021,02,05,01,26,8.10
2021,02,05,01,27,8.10
2021,02,05,01,28,8.10
2021,02,05,01,29,9.60
2021,02,05,01,30,9.60
2021,02,05,01,31,9.60
2021,02,05,01,32,9.60
2021,02,05,01,33,8.10
2021,02,05,01,34,6.40
2021,02,05,01,35,6.40
2021,02,05,01,36,6.40
2021,02,05,01,37,4.80
2021,02,05,01,38,4.80
2021,02,05,01,39,4.80
2021,02,05,01,40,4.80
2021,02,05,01,41,3.20
2021,02,05,01,42,4.80
2021,02,05,01,43,6.40
2021,02,05,01,44,4.80
2021,02,05,01,45,6.40
2021,02,05,01,46,8.10
2021,02,05,01,47,6.40
2021,02,05,01,48,6.40
2021,02,05,01,49,4.80
2021,02,05,01,50,6.40
2021,02,05,01,51,6.40
2021,02,05,01,52,6.40
2021,02,05,01,53,6.40
2021,02,05,01,54,8.10
2021,02,05,01,55,8.10
2021,02,05,01,56,6.40
2021,02,05,01,57,4.80
2021,02,05,01,58,6.40
2021,02,05,01,59,6.40
2021,02,05,02,00,4.80
2021,02,05,02,01,6.40
2021,02,05,02,02,6.40
2021,02,05,02,03,3.20
2021,02,05,02,04,4.80
2021,02,05,02,05,1.60
2021,02,05,02,06,4.80
2021,02,05,02,07,6.40
2021,02,05,02,08,6.40
2021,02,05,02,09,4.80
2021,02,05,02,10,6.40
2021,02,05,02,11,6.40
2021,02,05,02,12,8.10
2021,02,05,02,13,6.40
2021,02,05,02,14,4.80
2021,02,05,02,15,4.80
2021,02,05,02,16,3.20
2021,02,05,02,17,1.60
2021,02,05,02,21,1.60
2021,02,05,02,22,4.80
2021,02,05,02,23,1.60
2021,02,05,02,27,4.80
2021,02,05,02,28,3.20
2021,02,05,04,12,6.40
2021,02,05,04,13,3.20
2021,02,05,04,14,3.20
2021,02,05,04,15,1.60
2021,02,05,04,16,3.20
2021,02,05,04,17,1.60
2021,02,05,04,18,4.80
2021,02,05,04,19,3.20
2021,02,05,04,20,3.20
2021,02,05,04,21,6.40
2021,02,05,04,22,3.20
2021,02,05,04,23,4.80
2021,02,05,04,24,6.40
2021,02,05,04,25,8.10
2021,02,05,04,26,12.90
2021,02,05,04,27,6.40
2021,02,05,04,28,9.60
2021,02,05,04,29,9.60
2021,02,05,04,30,4.80
2021,02,05,04,31,4.80
2021,02,05,04,32,3.20
2021,02,05,04,37,1.60
2021,02,05,04,39,3.20
2021,02,05,04,40,9.60
2021,02,05,04,41,9.60
2021,02,05,04,42,11.30
2021,02,05,04,43,8.10
2021,02,05,04,44,9.60
2021,02,05,04,45,8.10
2021,02,05,04,46,11.30
2021,02,05,04,47,11.30
2021,02,05,04,48,11.30
2021,02,05,04,49,6.40
2021,02,05,04,50,4.80
2021,02,05,04,51,6.40
2021,02,05,04,52,6.40
2021,02,05,04,53,3.20
2021,02,05,05,04,4.80
2021,02,05,05,12,1.60
2021,02,05,05,13,4.80
2021,02,05,05,14,4.80
2021,02,05,05,15,4.80
2021,02,05,05,16,3.20
2021,02,05,05,17,3.20
2021,02,05,05,18,3.20
2021,02,05,05,21,3.20
2021,02,05,05,22,4.80
2021,02,05,05,23,3.20
2021,02,05,05,24,4.80
2021,02,05,05,25,4.80
2021,02,05,05,26,3.20
2021,02,05,05,27,4.80
2021,02,05,05,28,3.20
2021,02,05,05,29,4.80
2021,02,05,05,30,3.20
2021,02,05,05,31,3.20
2021,02,05,05,32,4.80
2021,02,05,05,33,4.80
2021,02,05,05,34,6.40
2021,02,05,05,35,6.40
2021,02,05,05,36,4.80
2021,02,05,05,37,4.80
2021,02,05,05,38,4.80
2021,02,05,05,39,6.40
2021,02,05,05,40,8.10
2021,02,05,05,41,4.80
2021,02,05,05,42,6.40
2021,02,05,05,43,3.20
2021,02,05,05,44,3.20
2021,02,05,05,45,4.80
2021,02,05,05,46,6.40
2021,02,05,05,47,4.80
2021,02,05,05,48,4.80
2021,02,05,05,49,4.80
2021,02,05,05,50,3.20
2021,02,05,05,51,6.40
2021,02,05,05,52,6.40
2021,02,05,05,53,6.40
2021,02,05,05,54,4.80
2021,02,05,05,55,8.10
2021,02,05,05,56,6.40
2021,02,05,05,57,6.40
2021,02,05,05,58,3.20
2021,02,05,05,59,4.80
2021,02,05,06,00,8.10
2021,02,05,06,01,8.10
2021,02,05,06,02,8.10
2021,02,05,06,03,6.40
2021,02,05,06,04,8.10
2021,02,05,06,05,4.80
2021,02,05,06,06,6.40
2021,02,05,06,07,6.40
2021,02,05,06,08,4.80
2021,02,05,06,09,3.20
2021,02,05,06,11,9.60
2021,02,05,06,12,3.20
2021,02,05,06,13,4.80
2021,02,05,06,14,6.40
2021,02,05,06,15,4.80
2021,02,05,06,16,6.40
2021,02,05,06,17,4.80
2021,02,05,06,18,9.60
2021,02,05,06,19,1.60
2021,02,05,06,20,8.10
2021,02,05,06,21,8.10
2021,02,05,06,22,4.80
2021,02,05,06,23,12.90
2021,02,05,06,24,11.30
2021,02,05,06,25,4.80
2021,02,05,06,26,6.40
2021,02,05,06,27,6.40
2021,02,05,06,28,8.10
2021,02,05,06,29,9.60
2021,02,05,06,30,9.60
2021,02,05,06,31,11.30
2021,02,05,06,32,12.90
2021,02,05,06,33,12.90
2021,02,05,06,34,11.30
2021,02,05,06,35,20.90
2021,02,05,06,36,11.30
2021,02,05,06,37,6.40
2021,02,05,06,38,6.40
2021,02,05,06,39,4.80
2021,02,05,06,40,8.10
2021,02,05,06,41,14.50
2021,02,05,06,42,12.90
2021,02,05,06,43,12.90
2021,02,05,06,44,8.10
2021,02,05,06,45,22.50
2021,02,05,06,46,16.10
2021,02,05,06,47,11.30
2021,02,05,06,48,9.60
2021,02,05,06,49,17.70
2021,02,05,06,50,8.10
2021,02,05,06,51,6.40
2021,02,05,06,52,16.10
2021,02,05,06,53,16.10
2021,02,05,06,54,14.50
2021,02,05,06,55,14.50
2021,02,05,06,56,20.90
2021,02,05,06,57,12.90
2021,02,05,06,58,20.90
2021,02,05,06,59,9.60
2021,02,05,07,00,11.30
2021,02,05,07,01,22.50
2021,02,05,07,02,12.90
2021,02,05,07,03,6.40
2021,02,05,07,04,6.40
2021,02,05,07,05,6.40
2021,02,05,07,06,9.60
2021,02,05,07,07,6.40
2021,02,05,07,08,14.50
2021,02,05,07,09,11.30
2021,02,05,07,10,4.80
2021,02,05,07,11,17.70
2021,02,05,07,12,14.50
2021,02,05,07,13,14.50
2021,02,05,07,14,8.10
2021,02,05,07,15,16.10
2021,02,05,07,16,11.30
2021,02,05,07,17,12.90
2021,02,05,07,18,6.40
2021,02,05,07,19,9.60
2021,02,05,07,20,14.50
2021,02,05,07,21,8.10
2021,02,05,07,22,17.70
2021,02,05,07,23,9.60
2021,02,05,07,24,11.30
2021,02,05,07,25,12.90
2021,02,05,07,26,8.10
2021,02,05,07,27,4.80
2021,02,05,07,28,9.60
2021,02,05,07,29,14.50
2021,02,05,07,30,6.40
2021,02,05,07,31,14.50
2021,02,05,07,32,20.90
2021,02,05,07,33,12.90
2021,02,05,07,34,14.50
2021,02,05,07,35,22.50
2021,02,05,07,36,33.80
2021,02,05,07,37,25.70
2021,02,05,07,38,17.70
2021,02,05,07,39,14.50
2021,02,05,07,40,27.40
2021,02,05,07,41,17.70
2021,02,05,07,42,27.40
2021,02,05,07,43,22.50
2021,02,05,07,44,9.60
2021,02,05,07,45,17.70
2021,02,05,07,46,19.30
2021,02,05,07,47,20.90
2021,02,05,07,48,17.70
2021,02,05,07,49,17.70
2021,02,05,07,50,24.20
2021,02,05,07,51,22.50
2021,02,05,07,52,14.50
2021,02,05,07,53,14.50
2021,02,05,07,54,14.50
2021,02,05,07,55,16.10
2021,02,05,07,56,8.10
2021,02,05,07,57,19.30
2021,02,05,07,58,12.90
2021,02,05,07,59,8.10
2021,02,05,08,00,9.60
2021,02,05,08,01,8.10
2021,02,05,08,02,6.40
2021,02,05,08,03,6.40
2021,02,05,08,04,9.60
2021,02,05,08,05,12.90
2021,02,05,08,06,11.30
2021,02,05,08,07,8.10
2021,02,05,08,08,16.10
2021,02,05,08,09,9.60
2021,02,05,08,10,8.10
2021,02,05,08,11,9.60
2021,02,05,08,12,11.30
2021,02,05,08,13,17.70
2021,02,05,08,14,6.40
2021,02,05,08,15,6.40
2021,02,05,08,16,6.40
2021,02,05,08,17,14.50
2021,02,05,08,18,14.50
2021,02,05,08,19,8.10
2021,02,05,08,20,8.10
2021,02,05,08,21,6.40
2021,02,05,08,22,9.60
2021,02,05,08,23,17.70
2021,02,05,08,24,3.20
2021,02,05,08,25,9.60
2021,02,05,08,26,6.40
2021,02,05,08,27,8.10
2021,02,05,08,28,17.70
2021,02,05,08,29,14.50
2021,02,05,08,30,4.80
2021,02,05,08,31,12.90
2021,02,05,08,32,16.10
2021,02,05,08,33,11.30
2021,02,05,08,34,19.30
2021,02,05,08,35,11.30
2021,02,05,08,36,6.40
2021,02,05,08,37,12.90
2021,02,05,08,38,6.40
2021,02,05,08,39,6.40
2021,02,05,08,40,9.60
2021,02,05,08,41,6.40
2021,02,05,08,42,11.30
2021,02,05,08,43,9.60
2021,02,05,08,44,11.30
2021,02,05,08,45,9.60
2021,02,05,08,46,12.90
2021,02,05,08,47,6.40
2021,02,05,08,48,8.10
2021,02,05,08,49,8.10
2021,02,05,08,50,8.10
2021,02,05,08,51,14.50
2021,02,05,08,52,6.40
2021,02,05,08,53,9.60
2021,02,05,08,54,6.40
2021,02,05,08,55,9.60
2021,02,05,08,56,8.10
2021,02,05,08,57,9.60
2021,02,05,08,58,9.60
2021,02,05,08,59,8.10
2021,02,05,09,00,8.10
2021,02,05,09,01,4.80
2021,02,05,09,02,6.40
2021,02,05,09,03,4.80
2021,02,05,09,04,11.30
2021,02,05,09,05,8.10
2021,02,05,09,06,6.40
2021,02,05,09,07,6.40
2021,02,05,09,08,8.10
2021,02,05,09,09,6.40
2021,02,05,09,10,4.80
2021,02,05,09,11,8.10
2021,02,05,09,12,8.10
2021,02,05,09,13,9.60
2021,02,05,09,14,6.40
2021,02,05,09,15,4.80
2021,02,05,09,16,4.80
2021,02,05,09,17,6.40
2021,02,05,09,18,12.90
2021,02,05,09,19,8.10
2021,02,05,09,20,4.80
2021,02,05,09,21,4.80
2021,02,05,09,22,4.80
2021,02,05,09,23,3.20
2021,02,05,09,24,4.80
2021,02,05,09,25,12.90
2021,02,05,09,26,9.60
2021,02,05,09,27,6.40
2021,02,05,09,28,6.40
2021,02,05,09,29,4.80
2021,02,05,09,30,6.40
2021,02,05,09,31,8.10
2021,02,05,09,32,16.10
2021,02,05,09,33,8.10
2021,02,05,09,34,12.90
2021,02,05,09,35,8.10
2021,02,05,09,36,4.80
2021,02,05,09,37,4.80
2021,02,05,09,38,4.80
2021,02,05,09,39,6.40
2021,02,05,09,40,6.40
2021,02,05,09,41,16.10
2021,02,05,09,42,6.40
2021,02,05,09,44,11.30
2021,02,05,09,45,8.10
2021,02,05,09,46,8.10
2021,02,05,09,47,11.30
2021,02,05,09,48,11.30
2021,02,05,09,49,8.10
2021,02,05,09,50,6.40
2021,02,05,09,51,14.50
2021,02,05,09,52,14.50
2021,02,05,09,53,11.30
2021,02,05,09,54,6.40
2021,02,05,09,55,4.80
2021,02,05,09,56,8.10
2021,02,05,09,57,4.80
2021,02,05,09,58,12.90
2021,02,05,09,59,11.30
2021,02,05,10,00,3.20
2021,02,05,10,01,4.80
2021,02,05,10,02,6.40
2021,02,05,10,03,8.10
2021,02,05,10,04,14.50
2021,02,05,10,05,8.10
2021,02,05,10,06,6.40
2021,02,05,10,07,6.40
2021,02,05,10,08,6.40
2021,02,05,10,09,12.90
2021,02,05,10,10,9.60
2021,02,05,10,11,12.90
2021,02,05,10,12,14.50
2021,02,05,10,13,8.10
2021,02,05,10,14,9.60
2021,02,05,10,15,4.80
2021,02,05,10,16,12.90
2021,02,05,10,17,16.10
2021,02,05,10,18,12.90
2021,02,05,10,19,8.10
2021,02,05,10,20,8.10
2021,02,05,10,21,11.30
2021,02,05,10,22,12.90
2021,02,05,10,23,3.20
2021,02,05,10,24,4.80
2021,02,05,10,25,4.80
2021,02,05,10,26,3.20
2021,02,05,10,27,3.20
2021,02,05,10,28,4.80
2021,02,05,10,29,3.20
2021,02,05,10,30,6.40
2021,02,05,10,31,6.40
2021,02,05,10,32,6.40
2021,02,05,10,33,4.80
2021,02,05,10,34,4.80
2021,02,05,10,35,4.80
2021,02,05,10,36,6.40
2021,02,05,10,37,4.80
2021,02,05,10,38,12.90
2021,02,05,10,39,3.20
2021,02,05,10,40,4.80
2021,02,05,10,41,4.80
2021,02,05,10,42,6.40
2021,02,05,10,43,8.10
2021,02,05,10,44,6.40
2021,02,05,10,45,9.60
2021,02,05,10,46,4.80
2021,02,05,10,47,8.10
2021,02,05,10,48,4.80
2021,02,05,10,49,4.80
2021,02,05,10,50,8.10
2021,02,05,10,51,8.10
2021,02,05,10,52,8.10
2021,02,05,10,53,8.10
2021,02,05,10,54,9.60
2021,02,05,10,55,8.10
2021,02,05,10,56,9.60
2021,02,05,10,57,9.60
2021,02,05,10,58,6.40
2021,02,05,10,59,8.10
2021,02,05,11,00,4.80
2021,02,05,11,01,8.10
2021,02,05,11,02,6.40
2021,02,05,11,03,4.80
2021,02,05,11,04,3.20
2021,02,05,11,05,4.80
2021,02,05,11,06,8.10
2021,02,05,11,07,4.80
2021,02,05,11,08,8.10
2021,02,05,11,09,6.40
2021,02,05,11,10,3.20
2021,02,05,11,11,4.80
2021,02,05,11,12,4.80
2021,02,05,11,13,12.90
2021,02,05,11,14,11.30
2021,02,05,11,15,6.40
2021,02,05,11,16,6.40
2021,02,05,11,17,6.40
2021,02,05,11,18,6.40
2021,02,05,11,19,4.80
2021,02,05,11,20,6.40
2021,02,05,11,22,6.40
2021,02,05,11,23,4.80
2021,02,05,11,24,3.20
2021,02,05,11,25,4.80
2021,02,05,11,26,12.90
2021,02,05,11,27,14.50
2021,02,05,11,28,11.30
2021,02,05,11,29,11.30
2021,02,05,11,30,11.30
2021,02,05,11,31,3.20
2021,02,05,11,32,14.50
2021,02,05,11,33,16.10
2021,02,05,11,34,19.30
2021,02,05,11,35,14.50
2021,02,05,11,36,14.50
2021,02,05,11,37,14.50
2021,02,05,11,38,12.90
2021,02,05,11,39,12.90
2021,02,05,11,40,11.30
2021,02,05,11,41,12.90
2021,02,05,11,42,17.70
2021,02,05,11,43,16.10
2021,02,05,11,44,12.90
2021,02,05,11,45,14.50
2021,02,05,11,46,16.10
2021,02,05,11,47,16.10
2021,02,05,11,48,14.50
2021,02,05,11,49,11.30
2021,02,05,11,50,11.30
2021,02,05,11,51,16.10
2021,02,05,11,52,14.50
2021,02,05,11,53,8.10
2021,02,05,11,54,9.60
2021,02,05,11,55,11.30
2021,02,05,11,56,6.40
2021,02,05,11,57,12.90
2021,02,05,11,58,14.50
2021,02,05,11,59,12.90
2021,02,05,12,00,11.30
2021,02,05,12,01,6.40
2021,02,05,12,02,12.90
2021,02,05,12,03,12.90
2021,02,05,12,04,11.30
2021,02,05,12,05,11.30
2021,02,05,12,06,12.90
2021,02,05,12,07,11.30
2021,02,05,12,08,11.30
2021,02,05,12,09,8.10
2021,02,05,12,10,12.90
2021,02,05,12,11,8.10
2021,02,05,12,12,11.30
2021,02,05,12,13,11.30
2021,02,05,12,14,9.60
2021,02,05,12,15,12.90
2021,02,05,12,16,12.90
2021,02,05,12,17,6.40
2021,02,05,12,18,6.40
2021,02,05,12,19,6.40
2021,02,05,12,20,6.40
2021,02,05,12,21,8.10
2021,02,05,12,22,4.80
2021,02,05,12,23,4.80
2021,02,05,12,24,6.40
2021,02,05,12,25,4.80
2021,02,05,12,26,4.80
2021,02,05,12,27,4.80
2021,02,05,12,28,3.20
2021,02,05,12,29,3.20
2021,02,05,12,30,3.20
2021,02,05,12,31,3.20
2021,02,05,12,32,4.80
2021,02,05,12,33,6.40
2021,02,05,12,34,3.20
2021,02,05,12,35,4.80
2021,02,05,12,36,3.20
2021,02,05,12,42,6.40
2021,02,05,12,43,8.10
2021,02,05,12,44,8.10
2021,02,05,12,45,14.50
2021,02,05,12,46,11.30
2021,02,05,12,47,9.60
2021,02,05,12,48,8.10
2021,02,05,12,49,8.10
2021,02,05,12,50,11.30
2021,02,05,12,51,8.10
2021,02,05,12,52,8.10
2021,02,05,12,53,11.30
2021,02,05,12,54,6.40
2021,02,05,12,55,6.40
2021,02,05,12,56,6.40
2021,02,05,12,57,9.60
2021,02,05,12,58,6.40
2021,02,05,12,59,6.40
2021,02,05,13,00,9.60
2021,02,05,13,01,6.40
2021,02,05,13,02,8.10
2021,02,05,13,03,6.40
2021,02,05,13,04,6.40
2021,02,05,13,05,9.60
2021,02,05,13,06,6.40
2021,02,05,13,07,6.40
2021,02,05,13,08,6.40
2021,02,05,13,09,11.30
2021,02,05,13,10,11.30
2021,02,05,13,11,11.30
2021,02,05,13,12,12.90
2021,02,05,13,13,11.30
2021,02,05,13,14,8.10
2021,02,05,13,15,6.40
2021,02,05,13,16,4.80
2021,02,05,13,17,4.80
2021,02,05,13,18,4.80
2021,02,05,13,19,3.20
2021,02,05,13,20,8.10
2021,02,05,13,21,6.40
2021,02,05,13,22,4.80
2021,02,05,13,23,3.20
2021,02,05,13,24,3.20
2021,02,05,13,25,4.80
2021,02,05,13,26,6.40
2021,02,05,13,27,12.90
2021,02,05,13,28,8.10
2021,02,05,13,29,6.40
2021,02,05,13,30,9.60
2021,02,05,13,31,6.40
2021,02,05,13,32,6.40
2021,02,05,13,33,4.80
2021,02,05,13,34,14.50
2021,02,05,13,35,8.10
2021,02,05,13,36,11.30
2021,02,05,13,37,4.80
2021,02,05,13,38,6.40
2021,02,05,13,39,8.10
2021,02,05,13,40,8.10
2021,02,05,13,41,8.10
2021,02,05,13,42,6.40
2021,02,05,13,43,6.40
2021,02,05,13,44,12.90
2021,02,05,13,45,6.40
2021,02,05,13,46,8.10
2021,02,05,13,47,4.80
2021,02,05,13,48,4.80
2021,02,05,13,49,4.80
2021,02,05,13,50,3.20
2021,02,05,13,51,4.80
2021,02,05,14,24,4.80
2021,02,05,14,25,3.20
2021,02,05,14,26,4.80
2021,02,05,14,27,3.20
2021,02,05,14,28,4.80
2021,02,05,14,29,4.80
2021,02,05,14,30,3.20
2021,02,05,14,31,3.20
2021,02,05,14,32,4.80
2021,02,05,14,33,4.80
2021,02,05,14,34,4.80
2021,02,05,14,35,4.80
2021,02,05,14,36,4.80
2021,02,05,14,37,4.80
2021,02,05,14,38,4.80
2021,02,05,14,39,3.20
2021,02,05,14,40,3.20
2021,02,05,14,41,3.20
2021,02,05,14,42,4.80
2021,02,05,14,43,4.80
2021,02,05,14,44,4.80
2021,02,05,14,45,3.20
2021,02,05,14,46,4.80
2021,02,05,14,47,4.80
2021,02,05,14,48,4.80
2021,02,05,14,49,4.80
2021,02,05,14,50,4.80
2021,02,05,14,51,4.80
2021,02,05,14,52,4.80
2021,02,05,14,53,4.80
2021,02,05,14,54,4.80
2021,02,05,14,55,3.20
2021,02,05,14,56,4.80
2021,02,05,14,57,4.80
2021,02,05,14,58,4.80
2021,02,05,14,59,3.20
2021,02,05,15,00,3.20
2021,02,05,15,01,3.20
2021,02,05,15,07,4.80
2021,02,05,15,11,4.80
2021,02,05,15,12,4.80
2021,02,05,15,15,3.20
2021,02,05,15,16,4.80
2021,02,05,15,17,4.80
2021,02,05,15,18,4.80
2021,02,05,15,19,4.80
2021,02,05,15,20,6.40
2021,02,05,15,21,3.20
2021,02,05,15,22,3.20
2021,02,05,15,25,1.60
2021,02,05,15,27,8.10
2021,02,05,15,33,3.20
2021,02,05,15,34,3.20
2021,02,05,16,25,1.60
2021,02,05,16,26,1.60
2021,02,05,16,27,1.60
2021,02,05,16,49,3.20
2021,02,05,16,50,1.60
2021,02,05,17,50,4.80
2021,02,05,17,51,3.20
2021,02,05,17,53,3.20
2021,02,05,17,54,1.60
2021,02,05,18,02,3.20
2021,02,05,18,05,1.60
2021,02,05,18,06,3.20
